Time,TemperatureF,DewpointF,PressureIn,WindDirection,WindDirectionDegrees,WindSpeedMPH,WindSpeedGustMPH,Humidity,HourlyPrecipIn,Conditions,Clouds,dailyrainin,SoftwareType,DateUTC
2013-03-05 00:00:00,24.4,18.5,29.91,SW,234,3.0,3.0,78,0.00,,,0.00,Wunderground v.1.13,2013-03-05 05:00:00,
2013-03-05 00:30:00,24.4,18.8,29.91,West,270,1.0,12.0,79,0.00,,,0.00,Wunderground v.1.13,2013-03-05 05:30:00,
2013-03-05 01:00:00,24.2,18.6,29.93,West,261,2.0,2.0,79,0.00,,,0.00,Wunderground v.1.13,2013-03-05 06:00:00,
2013-03-05 01:30:00,23.9,18.9,29.93,SW,228,1.0,12.0,81,0.00,,,0.00,Wunderground v.1.13,2013-03-05 06:30:00,
2013-03-05 02:00:00,24.1,18.8,29.94,WSW,250,1.0,1.0,80,0.00,,,0.00,Wunderground v.1.13,2013-03-05 07:00:00,
2013-03-05 02:30:00,23.9,18.6,29.94,West,262,3.0,12.0,80,0.00,,,0.00,Wunderground v.1.13,2013-03-05 07:30:00,
2013-03-05 03:00:00,23.8,18.5,29.94,WSW,257,1.0,1.0,80,0.00,,,0.00,Wunderground v.1.13,2013-03-05 08:00:00,
2013-03-05 03:30:00,23.6,18.3,29.96,WSW,242,2.0,12.0,80,0.00,,,0.00,Wunderground v.1.13,2013-03-05 08:30:00,
2013-03-05 04:00:00,23.6,18.3,29.96,WSW,239,2.0,12.0,80,0.00,,,0.00,Wunderground v.1.13,2013-03-05 09:00:00,
2013-03-05 04:30:00,23.6,18.0,29.97,WSW,244,2.0,2.0,79,0.00,,,0.00,Wunderground v.1.13,2013-03-05 09:30:00,
2013-03-05 05:00:00,23.5,17.9,29.98,SW,227,2.0,2.0,79,0.00,,,0.00,Wunderground v.1.13,2013-03-05 10:00:00,
2013-03-05 05:30:00,23.5,17.6,29.99,SW,227,2.0,12.0,78,0.00,,,0.00,Wunderground v.1.13,2013-03-05 10:30:00,
2013-03-05 06:00:00,23.5,17.9,30.00,SW,234,2.0,12.0,79,0.00,,,0.00,Wunderground v.1.13,2013-03-05 11:00:00,
2013-03-05 06:30:00,23.2,18.2,30.01,SW,236,1.0,1.0,81,0.00,,,0.00,Wunderground v.1.13,2013-03-05 11:30:00,
2013-03-05 07:00:00,23.3,18.3,30.02,SW,235,1.0,12.0,81,0.00,,,0.00,Wunderground v.1.13,2013-03-05 12:00:00,
2013-03-05 07:30:00,23.3,18.6,30.03,SW,234,1.0,12.0,82,0.00,,,0.00,Wunderground v.1.13,2013-03-05 12:30:00,
2013-03-05 08:00:00,23.8,19.1,30.04,WSW,238,2.0,12.0,82,0.00,,,0.00,Wunderground v.1.13,2013-03-05 13:00:00,
2013-03-05 08:30:00,24.1,18.8,30.04,SW,223,2.0,12.0,80,0.00,,,0.01,Wunderground v.1.13,2013-03-05 13:30:00,
2013-03-05 09:00:00,25.0,19.1,30.04,WSW,237,2.0,12.0,78,0.00,,,0.01,Wunderground v.1.13,2013-03-05 14:00:00,
2013-03-05 09:30:00,25.7,18.9,30.05,SW,234,3.0,3.0,75,0.00,,,0.01,Wunderground v.1.13,2013-03-05 14:30:00,
2013-03-05 10:00:00,27.0,19.8,30.05,WSW,238,2.0,2.0,74,0.00,,,0.01,Wunderground v.1.13,2013-03-05 15:00:00,
2013-03-05 10:30:00,29.5,20.2,30.05,WSW,242,0.0,12.0,68,0.00,,,0.01,Wunderground v.1.13,2013-03-05 15:30:00,
2013-03-05 11:00:00,29.8,20.2,30.05,WSW,243,1.0,1.0,67,0.00,,,0.01,Wunderground v.1.13,2013-03-05 16:00:00,
2013-03-05 11:30:00,30.6,20.6,30.05,WSW,238,1.0,1.0,66,0.00,,,0.01,Wunderground v.1.13,2013-03-05 16:30:00,
2013-03-05 12:00:00,32.8,22.0,30.05,WSW,238,0.0,12.0,64,0.00,,,0.01,Wunderground v.1.13,2013-03-05 17:00:00,
2013-03-05 12:30:00,32.7,20.7,30.05,WSW,238,0.0,12.0,61,0.00,,,0.01,Wunderground v.1.13,2013-03-05 17:30:00,
2013-03-05 13:00:00,32.1,21.3,30.04,West,261,1.0,1.0,64,0.00,,,0.01,Wunderground v.1.13,2013-03-05 18:00:00,
2013-03-05 13:30:00,32.7,20.7,30.04,West,267,1.0,12.0,61,0.00,,,0.01,Wunderground v.1.13,2013-03-05 18:30:00,
2013-03-05 14:00:00,33.4,22.5,30.04,West,267,0.0,12.0,64,0.00,,,0.01,Wunderground v.1.13,2013-03-05 19:00:00,
2013-03-05 14:30:00,34.3,22.2,30.05,West,267,1.0,1.0,61,0.00,,,0.01,Wunderground v.1.13,2013-03-05 19:30:00,
2013-03-05 15:00:00,34.7,23.8,30.05,NNW,336,1.0,12.0,64,0.00,,,0.01,Wunderground v.1.13,2013-03-05 20:00:00,
2013-03-05 15:30:00,34.7,23.8,30.06,NE,34,2.0,2.0,64,0.00,,,0.01,Wunderground v.1.13,2013-03-05 20:30:00,
2013-03-05 16:00:00,35.3,24.3,30.06,NE,34,1.0,1.0,64,0.00,,,0.01,Wunderground v.1.13,2013-03-05 21:00:00,
2013-03-05 16:30:00,35.6,24.6,30.06,NE,36,1.0,12.0,64,0.00,,,0.01,Wunderground v.1.13,2013-03-05 21:30:00,
2013-03-05 17:00:00,35.2,24.2,30.06,NE,36,1.0,12.0,64,0.00,,,0.01,Wunderground v.1.13,2013-03-05 22:00:00,
2013-03-05 17:30:00,34.1,24.3,30.05,NE,36,1.0,12.0,67,0.00,,,0.01,Wunderground v.1.13,2013-03-05 22:30:00,
2013-03-05 18:00:00,32.4,23.7,30.06,NE,36,0.0,12.0,70,0.00,,,0.01,Wunderground v.1.13,2013-03-05 23:00:00,
2013-03-05 18:30:00,30.6,23.3,30.06,NE,36,0.0,12.0,74,0.00,,,0.01,Wunderground v.1.13,2013-03-05 23:30:00,
2013-03-05 19:00:00,30.1,23.1,30.07,NE,36,1.0,1.0,75,0.00,,,0.01,Wunderground v.1.13,2013-03-06 00:00:00,
2013-03-05 19:30:00,29.8,23.5,30.07,NE,36,1.0,12.0,77,0.00,,,0.01,Wunderground v.1.13,2013-03-06 00:30:00,
2013-03-05 20:00:00,29.4,23.7,30.06,NE,34,1.0,1.0,79,0.00,,,0.01,Wunderground v.1.13,2013-03-06 01:00:00,
2013-03-05 20:30:00,28.8,23.7,30.06,NE,34,1.0,12.0,81,0.00,,,0.01,Wunderground v.1.13,2013-03-06 01:30:00,
2013-03-05 21:00:00,29.0,24.2,30.06,NE,34,1.0,12.0,82,0.00,,,0.01,Wunderground v.1.13,2013-03-06 02:00:00,
2013-03-05 21:30:00,29.8,25.3,30.06,NE,35,1.0,12.0,83,0.00,,,0.01,Wunderground v.1.13,2013-03-06 02:30:00,
2013-03-05 22:00:00,30.3,25.8,30.05,NE,35,2.0,12.0,83,0.00,,,0.01,Wunderground v.1.13,2013-03-06 03:00:00,
2013-03-05 22:30:00,31.2,26.6,30.05,NE,46,2.0,2.0,83,0.00,,,0.01,Wunderground v.1.13,2013-03-06 03:30:00,
2013-03-05 23:00:00,31.8,26.9,30.05,NE,46,2.0,12.0,82,0.00,,,0.01,Wunderground v.1.13,2013-03-06 04:00:00,
2013-03-05 23:30:00,31.8,26.9,30.06,NE,46,1.0,1.0,82,0.00,,,0.01,Wunderground v.1.13,2013-03-06 04:30:00,